パンスターズ彗星

C/2023 V3 ( PanSTARRS )

English version
Home page
Updated on May 13, 2024

---------------------------------------------------------------------

・ プロフィール

発見日 2023年11月3日
発見光度 20.5等
発見者 Pan-STARRS 1 telescope (Haleakala)

・ 軌道要素

Epoch 2023 Sept. 13.0 TT = JDT 2460200.5
T 2023 Aug. 6.19302 TT                                  Rudenko
q   4.4716852            (2000.0)            P               Q
n   0.02047019     Peri.  291.51626     +0.70015026     -0.30417985
a  13.2349250      Node    91.50085     +0.59257112     +0.75225480
e   0.6621299      Incl.   40.25433     -0.39830778     +0.58445474
P  48.1
>From 52 observations 2023 Sept. 25-2024 Jan. 2, mean residual 0".3.

・ 光度変化

        m1 = 10.5 + 5 logΔ + 10.0 log r

---------------------------------------------------------------------

軌道要素はM.P.E.C. 2024-A43に掲載されたものです。
光度グラフはComet for Windowsで作成したものです。

---------------------------------------------------------------------

Copyright(C) Seiichi Yoshida (comet@aerith.net). All rights reserved.